Simultaneous Nadir Overpasses (SNOs) Predictions

Prediction of SNOs between LANDSAT-8 and METOP-A Satellite Orbit:

Table of predicted SNOs for the next 14.0 days since TLE Epoch: 11/7/2016
Index Date (LANDSAT-8) Time (LANDSAT-8) Lat,Lon (LANDSAT-8) SZA (LANDSAT-8 ) Date (METOP-A) Time (METOP-A) Lat,Lon (METOP-A) SZA (METOP-A ) Distance(km) Time Diff (sec)
1 11/07/2016 17:12:41 81.13, -38.12 100.06 11/07/2016 17:12:29 81.13, -38.15 100.05 0.59 12
2 11/07/2016 18:02:07 -81.15, 129.80 79.89 11/07/2016 18:03:08 -81.15, 129.87 79.86 1.36 61
3 11/10/2016 12:46:56 81.12, 28.20 100.83 11/10/2016 12:46:51 81.13, 28.25 100.84 1.12 5
4 11/10/2016 13:36:22 -81.14,-163.87 79.12 11/10/2016 13:37:30 -81.15,-163.69 79.06 3.31 68
5 11/13/2016 07:31:45 -81.11, -73.24 78.47 11/13/2016 07:30:34 -81.11, -73.27 78.51 0.63 71
6 11/13/2016 08:21:09 81.14, 94.83 101.61 11/13/2016 08:21:11 81.14, 95.00 101.63 2.96 2
7 11/16/2016 03:05:58 -81.12, -6.62 77.74 11/16/2016 03:04:54 -81.12, -6.50 77.76 2.05 64
8 11/16/2016 03:55:23 81.15, 161.43 102.33 11/16/2016 03:55:33 81.14, 161.36 102.32 1.44 10
9 11/18/2016 22:40:13 -81.11, 59.60 77.12 11/18/2016 22:39:17 -81.11, 59.51 77.15 1.62 56




NCC Satellite Simultaneous Nadir Overpasses (SNOs) Prediction Service
